星链-31907 (STARLINK-31907 )

导读

STARLINK-31907是美国SpaceX公司星链(Starlink)互联网星座项目中的一颗低轨通信卫星,于2024年5月18日发射入轨。它属于星链第二代mini卫星平台,运行在近地轨道,配备先进通信设备,旨在通过大规模组网为全球提供高速低延迟宽带互联网服务,可支持偏远地区覆盖、商业航运航空通信等应用,是星链全球星座部署的组成部分,同时星链项目也因太空碎片、轨道安全等问题引发广泛争议。

Basic Information
目录编号:
59797
目录名称:
STARLINK-31907
国际标识:
2024-093R
轨道中心:
EARTH
卫星名称:
星链-31907
卫星全名:
星链-31907 (STARLINK-31907 )
卫星状态:
在轨 (已飞行839 天)
发射日期:
2024-05-18 UTC
国别 :
美国 (US)
星等 :
--
Orbit Information
数据来源 国际轨道数据
星历时间: 2026-09-03T11:21:19+0800
1天前
查看轨道信息
半长轴: 6861.203km
偏心率: 0.0001008
轨道倾角: 43.001°
近地点辐角 274.460°
升交点赤经 286.791°
平近点角 85.614°
近地点: 482.374km
远地点: 483.758km
周期: 94.267分钟
每日圈数: 15.275745
Detailed Information
固有亮度:
5
最大亮度:
1.5
卫星平台:
Starlink v2.0 mini
覆盖范围:
全球
运营商:
太空探索技术公司
运营商所在国:
美国
制造商(研发单位):
太空探索技术公司
制造商所在国:
美国
使用方式:
暂无
Satellite Introduction
星链(Starlink)计划是由太空探索技术公司(SpaceX)提出的一个巨型低轨卫星互联网星座项目,计划在2019年至2024年间在太空搭建由约1.2万颗卫星组成的“星链”网络,其中1584颗将部署在地球上空550千米处的近地轨道,并从2020年开始工作。该卫星仍在工作。
2D Orbit Map
3D Orbit Map
Orbit Altitude Analysis Chart
Orbit Inclination Analysis Chart
Orbit Comprehensive Analysis Chart
View Comprehensive Chart
Conjunction Data List
Event ID Objects TCA Miss Dist (km) Collision Risk Probability Collision Risk Index (CRI) Action
CDM_260904-151305-979706-424721
2026-09-04T
15:13:50+0000
0.251 km
中距离
4.978184E-4 高风险 0.89
CDM_260904-045705-979706-784021
2026-09-04T
04:57:07+0000
0.275 km
中距离
3.641721E-4 高风险 0.86
CDM_260905-120705-979706-212321
2026-09-05T
12:07:05+0000
0.311 km
远距离
3.265394E-4 高风险 0.85
CDM_260904-044105-979706-680221
2026-09-04T
04:41:20+0000
0.427 km
远距离
1.989068E-4 高风险 0.81
CDM_260905-071205-979706-379221
2026-09-05T
07:12:41+0000
0.532 km
远距离
1.411548E-4 高风险 0.78
CDM_260905-074205-979706-424721
2026-09-05T
07:42:27+0000
0.676 km
远距离
6.213364E-5 中风险 0.71
CDM_260904-180105-979706-680221
2026-09-04T
18:01:38+0000
1.004 km
极远距离
1.679701E-5 中风险 0.6
CDM_260903-215305-979706-784021
2026-09-03T
21:53:26+0000
0.929 km
远距离
1.642272E-5 中风险 0.59
CDM_260904-164705-979706-424721
2026-09-04T
16:47:59+0000
1.437 km
极远距离
5.010731E-6 低风险 0.49
CDM_260903-201905-979706-784021
2026-09-03T
20:19:17+0000
1.488 km
极远距离
3.356429E-6 低风险 0.46